Погода в Рок Саунд

Багамские острова     24°48′59″N   76°10′13″W
темп.,
°C
ветер,
м/с
пор.,
м/с
влажн.,
%
обл.,
%
осадки,
мм/ч
давл.,
гПа
погр.,
м
27 февраля, сб
сб2701:00+25вюв910785 0.6 1022972
04:00+24вюв810780 0.0 10211085
07:00+25вюв910773 0.1 10221148
10:00+25вюв9107924 0.1 1024986
13:00+25вюв9107717 0.2 10231055
16:00+25вюв910760 0.0 10211115
19:00+25вюв911770 0.0 10221100
22:00+25вюв1011770 0.0 10241146
28 февраля, вс
вс2801:00+25вюв10117910 0.1 10231142
04:00+25вюв9117644 0.1 10211154
07:00+25вюв10127634 0.1 10221205
10:00+25вюв10117647 0.1 10241222
13:00+25вюв9117627 0.1 10221134
16:00+25вюв810770 0.0 1020981
19:00+25вюв89830 0.1 1021856
22:00+25вюв9108117 0.1 1021868
1 марта, пн
пн101:00+24вюв897854 0.1 1020958
04:00+24вюв887739 0.1 10181019
07:00+24вюв787734 0.1 1020966
10:00+24вюв88780 0.0 1021901
13:00+24юв67790 0.0 1020843
16:00+24юв56780 0.0 1018734
19:00+24вюв56800 0.0 1019674
22:00+24вюв55790 0.0 1020634
2 марта, вт
вт201:00+24вюв447611 0.0 1019840
04:00+24вюв336955 0.0 1017960
07:00+24вюв226551 0.1 10181075
10:00+24юв446814 0.0 1020955
13:00+24вюв22627 0.0 1019880
16:00+25св33640 0.0 1018949
19:00+24всв566912 0.0 10201095
22:00+24всв787063 0.1 10211242
3 марта, ср
ср301:00+24всв897953 0.4 1020862
04:00+23всв9108077 0.8 1019903
07:00+24в9107788 1.1 1021992
10:00+24в897643 0.0 1022988
13:00+24вюв897822 0.1 1021963
16:00+25вюв67740 0.0 10191054
19:00+24вюв55774 0.3 1020744
22:00+24вюв45770 1.3 1021659